www.pogodaiklimat.ru

Погода и климат >> Архив погоды >> Норвегия >> Torungen Fyr


ПОГОДА в Torungen Fyr

  • Прогноз погоды в Torungen Fyr
  • Монитор погоды в Torungen Fyr
  • Климат города

АРХИВ ПОГОДЫ в Torungen Fyr

Время (UTC), дата Ветер
(напр.,м/с)
 
Видим.   Явления Облачность Т
(С)
Тd
(С)
f
(%)
Тe
(С)
Тes
(С)
Комфортность P
(гПа)
Po
(гПа)
Тmin
(С)
Tmax
(С)
R
(мм)
R24
(мм)
S
(см)
22 6.12 С 7-8
{8}
н/о н/о +3.4 -1 -1 999.2 997.7
23 6.12 С 10-11
{11}
н/о н/о +2.3 -3 -3 999.2 997.7
00 7.12 -10
{11}
н/о н/о +2.0 1000.1 998.6 3
02 7.12 -5
{7}
н/о н/о +2.2 1000.5 999.0
01 7.12 С 6-7
{10}
н/о н/о +2.1 -2 -2 1000.6 999.1
03 7.12 С 3-3
{4}
н/о н/о +2.2 -0 -0 1000.6 999.1
04 7.12 СЗ 1-1
{4}
н/о н/о +2.0 +2 +2 1000.5 999.0
05 7.12 З 3-4
{5}
н/о н/о +2.3 -0 -0 1001.0 999.5
06 7.12 С 2-4
{10}
н/о н/о +2.0 0 0 999.9 998.4 +1.8 +5.6 3
08 7.12 В 1-2
{3}
н/о н/о +2.6 +3 +3 998.7 997.3
07 7.12 ЮЗ 2-3
{3}
н/о н/о +2.0 0 0 1000.0 998.5
09 7.12 З 2-3
{4}
н/о н/о +3.0 +2 +2 999.2 997.7
10 7.12 С 4-6
{6}
н/о н/о +3.4 +1 +1 997.6 996.1
11 7.12 СВ 4-5
{5}
н/о н/о +3.3 0 0 997.0 995.5
12 7.12 СВ 6-7
{7}
н/о н/о +3.9 0 0 995.7 994.2 0.3
14 7.12 В 10-12
{12}
н/о н/о +4.9 0 0 992.0 990.6
13 7.12 СВ 9-11
{11}
н/о н/о +4.1 -1 -1 994.0 992.5
15 7.12 В 10-12
{13}
н/о н/о +5.3 +1 +1 990.2 988.8
16 7.12 В 10-12
{13}
н/о н/о +5.8 +1 +1 988.4 987.0
17 7.12 В 9-10
{13}
н/о н/о +6.1 +2 +2 986.9 985.4
18 7.12 СВ 11-13
{13}
н/о н/о +6.0 +1 +1 985.2 983.8 +1.7 +6.5 11
21 7.12 С 11-14
{19}
н/о н/о +2.5 -3 -3 982.8 981.4
00 8.12 С 6-8
{19}
н/о н/о +2.5 -2 -2 984.5 983.1 7
02 8.12 З 2-3
{3}
н/о н/о +2.5 +1 +1 985.1 983.7
01 8.12 СЗ 2-3
{6}
н/о н/о +2.3 +1 +1 985.1 983.6
03 8.12 ЮЗ 2-3
{3}
н/о н/о +3.2 +2 +2 985.0 983.5
04 8.12 СЗ 1-2
{3}
н/о н/о +3.0 +3 +3 984.4 983.0
05 8.12 штиль 0-1
{2}
н/о н/о +2.7 +3 +3 984.3 982.8
06 8.12 ЮВ 3-4
{6}
н/о н/о +3.3 +1 +1 983.6 982.2 +2.0 +6.2 7
08 8.12 В 8-10
{10}
н/о н/о +3.8 -1 -1 982.3 980.8
07 8.12 В 4-6
{6}
н/о н/о +3.9 +1 +1 983.1 981.7
09 8.12 СВ 9-11
{11}
н/о н/о +3.4 -2 -2 981.4 980.0
10 8.12 СВ 10-12
{13}
н/о н/о +3.6 -2 -2 980.3 978.8
11 8.12 СВ 8-11
{13}
н/о н/о +3.7 -1 -1 979.1 977.6
12 8.12 СВ 7-9
{13}
н/о н/о +3.9 -0 -0 978.2 976.7 5
14 8.12 С 5-7
{12}
н/о н/о +3.2 -0 -0 977.0 975.6
13 8.12 СВ 8-9
{10}
н/о н/о +3.5 -1 -1 977.2 975.7
15 8.12 СВ 7-9
{9}
н/о н/о +2.5 -2 -2 976.2 974.7
16 8.12 СВ 8-9
{10}
н/о н/о +2.1 -3 -3 975.7 974.2
17 8.12 СВ 9-11
{11}
н/о н/о +2.1 -3 -3 975.1 973.7
18 8.12 СВ 8-9
{12}
н/о н/о +2.1 -3 -3 974.9 973.5 +1.9 +4.6 9
20 8.12 С 8-9
{10}
н/о н/о +2.4 -3 -3 975.1 973.7
19 8.12 С 8-10
{10}
н/о н/о +2.3 -3 -3 974.6 973.2
21 8.12 С 6-7
{9}
н/о н/о +2.8 -1 -1 975.4 974.0
22 8.12 СЗ 4-5
{7}
н/о н/о +2.7 -0 -0 975.8 974.4
23 8.12 З 3-4
{6}
н/о н/о +2.3 -0 -0 976.2 974.8
00 9.12 З 3-3
{10}
н/о н/о +1.9 -1 -1 976.3 974.8 0.5
02 9.12 З 3-4
{4}
н/о н/о +0.6 -2 -2 976.5 975.0
01 9.12 СЗ 3-3
{3}
н/о н/о +1.2 -2 -2 976.2 974.7
03 9.12 С 2-2
{3}
н/о н/о +0.5 -1 -1 976.6 975.1
04 9.12 З 2 н/о н/о +0.3 976.8 975.4
05 9.12 СЗ 2-2
{3}
н/о н/о +0.4 -1 -1 977.5 976.1
06 9.12 СЗ 3-3
{4}
н/о н/о +0.4 -2 -2 978.3 976.8 +0.1 +2.9 0.5
08 9.12 С 6-7
{7}
н/о н/о +1.1 -4 -4 980.7 979.3
07 9.12 С 5-7
{7}
н/о н/о +0.9 -3 -3 979.5 978.0
09 9.12 С 5-6
{7}
н/о н/о +1.6 -2 -2 982.2 980.8
10 9.12 С 5-6
{6}
н/о н/о +1.8 -2 -2 983.6 982.1
11 9.12 СЗ 4-4
{7}
н/о н/о +1.6 -2 -2 984.6 983.1
12 9.12 СЗ 4-5
{7}
н/о н/о +2.2 -1 -1 985.8 984.3 0.4
14 9.12 З 3-3
{4}
н/о н/о +3.5 +1 +1 987.8 986.3
13 9.12 СЗ 4-4
{4}
н/о н/о +3.1 0 0 986.7 985.2
15 9.12 З 4-5
{5}
н/о н/о +3.0 0 0 988.8 987.3
16 9.12 СЗ 5-6
{6}
н/о н/о +3.0 -1 -1 989.9 988.4
17 9.12 СЗ 8-10
{10}
н/о н/о +3.8 -1 -1 990.7 989.2
18 9.12 СЗ 9-11
{12}
н/о н/о +3.4 +1.8 89 -3 -3 991.6 990.1 +0.3 +3.8 0.4
20 9.12 СЗ 8-10
{13}
н/о н/о +2.9 -2 -2 993.7 992.3
19 9.12 СЗ 10-12
{12}
н/о н/о +3.3 +2.3 93 -4 -4 992.7 991.2
21 9.12 СЗ 9-12
{12}
н/о н/о +3.3 -0.3 77 -3 -3 994.4 992.9
22 9.12 СЗ 8-12
{13}
н/о н/о +3.0 -0.8 76 -3 -3 995.2 993.7
23 9.12 СЗ 9-13
{13}
н/о н/о +3.2 -1.3 72 -3 -3 996.0 994.5
00 10.12 СЗ 8-10
{13}
н/о н/о +2.7 -0.9 77 -4 -4 996.5 995.0
02 10.12 СЗ 10-13
{13}
н/о н/о +3.5 -0.9 73 -3 -3 997.3 995.8
01 10.12 СЗ 9-12
{12}
н/о н/о +3.2 -1.0 74 -3 -3 996.7 995.2
03 10.12 СЗ 10-13
{14}
н/о н/о +3.4 -0.8 74 -3 -3 997.6 996.2
04 10.12 СЗ 10 н/о н/о +3.8 -0.6 73 -3 -3 997.9 996.4
05 10.12 СЗ 11-14
{14}
н/о н/о +4.0 -1.3 68 -3 -3 998.1 996.6
06 10.12 СЗ 10-13
{16}
н/о н/о +3.9 -0.9 71 -3 -3 998.5 997.1 +2.6 +4.2 0.2
08 10.12 СЗ 11-14
{16}
н/о н/о +4.2 0.0 74 -3 -3 999.6 998.1
07 10.12 СЗ 12-16
{16}
н/о н/о +4.3 -1.1 68 -3 -3 998.9 997.4
09 10.12 СЗ 9-12
{14}
н/о н/о +4.7 -0.7 68 -1 -1 1000.7 999.2
10 10.12 СЗ 10-13
{13}
н/о н/о +4.9 -1.7 62 -1 -1 1001.4 999.9
11 10.12 СЗ 10-13
{13}
н/о н/о +5.2 -1.7 61 -1 -1 1002.1 1000.7
12 10.12 СЗ 8-11
{16}
н/о н/о +6.4 -0.8 60 +2 +2 1002.8 1001.4
14 10.12 СЗ 8-10
{14}
н/о н/о +6.2 -1.6 57 +1 +1 1004.8 1003.4
13 10.12 СЗ 10-14
{14}
н/о н/о +6.4 -1.2 58 +1 +1 1003.8 1002.3
15 10.12 СЗ 8-10
{10}
н/о н/о +6.3 -1.3 58 +1 +1 1005.8 1004.4
16 10.12 СЗ 8-10
{12}
н/о н/о +6.5 -1.9 55 +2 +2 1006.6 1005.1
17 10.12 С 9-13
{13}
н/о н/о +6.5 -2.4 53 +1 +1 1007.3 1005.8
18 10.12 СЗ 10-13
{14}
н/о н/о +6.0 -2.8 53 +1 +1 1008.4 1006.9 +3.8 +6.9
20 10.12 С 7-9
{11}
н/о н/о +4.9 -2.4 59 -0 -0 1010.5 1009.0
19 10.12 СЗ 9-11
{13}
н/о н/о +5.4 -2.4 57 -0 -0 1009.6 1008.1
21 10.12 С 7-8
{9}
н/о н/о +4.5 -1.5 65 -1 -1 1011.1 1009.7
22 10.12 С 6-7
{8}
н/о н/о +4.1 -2.9 60 -1 -1 1012.3 1010.8
23 10.12 С 7-8
{8}
н/о н/о +4.7 -2.4 60 -0 -0 1012.9 1011.4
00 11.12 СЗ 6-7
{13}
н/о н/о +3.5 -2.4 65 -2 -2 1014.2 1012.7
02 11.12 СЗ 7-8
{8}
н/о н/о +3.5 -2.6 64 -2 -2 1015.7 1014.2
01 11.12 С 6-7
{8}
н/о н/о +3.6 -1.9 67 -2 -2 1014.8 1013.3
03 11.12 С 7-9
{9}
н/о н/о +4.4 -3.6 56 -1 -1 1016.3 1014.8
04 11.12 С 8-10
{10}
н/о н/о +4.3 -2.7 60 -1 -1 1016.9 1015.4
05 11.12 С 6-8
{9}
н/о н/о +4.1 -2.7 61 -1 -1 1017.8 1016.3
06 11.12 С 7-9
{10}
н/о н/о +4.5 -3.2 57 -1 -1 1018.5 1017.0 +3.2 +6.0
08 11.12 С 7-8
{9}
н/о н/о +3.9 -3.3 59 -2 -2 1020.2 1018.7
07 11.12 С 6-7
{9}
н/о н/о +4.1 -2.3 63 -1 -1 1019.3 1017.8
09 11.12 -9
{10}
н/о н/о +4.0 -2.8 61 1021.3 1019.8
10 11.12 С 7-9
{9}
н/о н/о +4.4 -2.9 59 -1 -1 1021.8 1020.3
11 11.12 С 9-11
{11}
н/о н/о +5.3 -3.2 54 -0 -0 1022.2 1020.8
12 11.12 С 8
{11}
н/о н/о +5.6 -3.4 52 +1 +1 1022.7 1021.2
14 11.12 С 7-8
{11}
н/о н/о +5.5 -2.5 56 +1 +1 1024.0 1022.5
13 11.12 С 9-11
{11}
н/о н/о +5.9 -2.7 54 +1 +1 1023.2 1021.7
15 11.12 С 7-8
{9}
н/о н/о +5.0 -1.6 62 -0 -0 1024.6 1023.1
16 11.12 С 6-6
{7}
н/о н/о +4.2 -0.8 70 -1 -1 1025.2 1023.7
17 11.12 С 7-8
{8}
н/о н/о +3.3 -0.9 74 -3 -3 1025.6 1024.1
18 11.12 С 7-8
{11}
н/о н/о +2.9 +0.1 82 -3 -3 1026.4 1024.9 +2.7 +6.0
20 11.12 С 7-8
{9}
н/о н/о +2.6 -1.9 72 -3 -3 1026.8 1025.3
19 11.12 С 8-9
{9}
н/о н/о +2.8 -1.9 71 -4 -4 1026.6 1025.0
21 11.12 С 8-9
{9}
н/о н/о +2.4 -1.2 77 -4 -4 1027.4 1025.8
22 11.12 С 7-8
{8}
н/о н/о +2.2 -1.6 76 -4 -4 1027.8 1026.3
23 11.12 С 7-8
{8}
н/о н/о +2.1 +1.4 95 -5 -5 1028.3 1026.7
00 12.12 С 7-7
{9}
н/о н/о +1.8 +0.6 92 -5 -5 1028.8 1027.3
02 12.12 С 6-7
{7}
н/о н/о +1.5 -3 -3 1029.4 1027.9
01 12.12 -7
{7}
н/о н/о +1.4 1029.3 1027.7
03 12.12 С 6-7
{8}
н/о н/о +0.9 -4 -4 1030.1 1028.6
04 12.12 С 6-7
{7}
н/о н/о +0.7 -4 -4 1030.3 1028.7
05 12.12 С 5-5
{7}
н/о н/о +0.6 -4 -4 1030.4 1028.9
06 12.12 -6
{8}
н/о н/о +0.3 1030.9 1029.3 +0.1 +3.1
08 12.12 С 7-8
{8}
н/о н/о +0.5 -5 -5 1031.8 1030.3
07 12.12 С 6-7
{7}
н/о н/о +0.3 -5 -5 1031.4 1029.9
09 12.12 С 7-8
{8}
н/о н/о +0.8 -4 -4 1032.3 1030.7
10 12.12 С 7-8
{9}
н/о н/о +1.2 -4 -4 1032.4 1030.9
11 12.12 С 8-9
{9}
н/о н/о +1.2 -4 -4 1032.6 1031.1
12 12.12 С 8-9
{10}
н/о н/о +1.3 -4 -4 1032.7 1031.2
14 12.12 С 8-9
{9}
н/о н/о +0.8 -5 -5 1032.8 1031.2
13 12.12 -8
{9}
н/о н/о +0.9 1032.7 1031.2
15 12.12 С 7-8
{9}
н/о н/о +0.8 -4 -4 1032.9 1031.3
16 12.12 С 6-7
{9}
н/о н/о +0.8 -4 -4 1033.1 1031.6
17 12.12 С 6-7
{21}
н/о н/о +0.9 -4 -4 1033.1 1031.6
18 12.12 СВ 7-8
{21}
н/о н/о +1.1 -4 -4 1033.3 1031.8 +0.1 +1.5
20 12.12 С 7-8
{8}
н/о н/о +0.5 -5 -5 1033.5 1032.0
19 12.12 С 7-8
{9}
н/о н/о +0.9 -4 -4 1033.6 1032.1
21 12.12 С 7-8
{9}
н/о н/о +0.2 -5 -5 1034.0 1032.5
22 12.12 С 8-9
{9}
н/о н/о 0.0 -6 -6 1034.0 1032.4
23 12.12 С 7-9
{9}
н/о н/о -0.4 -6 -6 1033.8 1032.3
00 13.12 С 7-8
{10}
н/о н/о -0.8 -6 -6 1034.1 1032.5 0.3
02 13.12 С 8-10
{10}
н/о н/о -0.9 -7 -7 1033.9 1032.3
01 13.12 С 7-9
{9}
н/о н/о -0.9 -7 -7 1033.9 1032.3
03 13.12 С 9-11
{11}
н/о н/о -1.1 -8 -8 1033.5 1031.9
04 13.12 С 9-11
{11}
н/о н/о -1.7 -8 -8 1033.3 1031.7
05 13.12 С 9 н/о н/о -1.7 1033.3 1031.7
06 13.12 -11
{12}
н/о н/о -2.1 1033.1 1031.6 -2.1 +1.3 0.3
08 13.12 С 9-10
{12}
н/о н/о -2.1 -9 -9 1033.3 1031.7
07 13.12 С 8 н/о н/о -2.3 1033.4 1031.8
09 13.12 С 9-11
{11}
н/о н/о -1.9 -9 -9 1033.4 1031.9
10 13.12 С 8-9
{11}
н/о н/о -1.6 -8 -8 1033.3 1031.8
11 13.12 С 7-9
{10}
н/о н/о -1.2 -7 -7 1033.1 1031.5
12 13.12 СВ 8-10
{12}
н/о н/о -0.7 -7 -7 1033.0 1031.4
14 13.12 СВ 8-10
{11}
н/о н/о -0.5 -6 -6 1032.9 1031.4
13 13.12 СВ 7-15
{15}
н/о н/о -0.6 -6 -6 1033.0 1031.5
15 13.12 СВ 8-9
{10}
н/о н/о -0.7 -7 -7 1033.0 1031.5
16 13.12 СВ 7-9
{10}
н/о н/о -0.8 -6 -6 1033.2 1031.7
17 13.12 СВ 8-10
{11}
н/о н/о -0.5 -6 -6 1032.9 1031.4
18 13.12 СВ 9-11
{15}
н/о н/о -0.5 -7 -7 1032.9 1031.4 -2.5 -0.2
20 13.12 СВ 9-11
{12}
н/о н/о -0.2 -6 -6 1033.2 1031.6
19 13.12 СВ 9-11
{11}
н/о н/о -0.5 -7 -7 1033.1 1031.6
21 13.12 СВ 9-12
{14}
н/о н/о -0.2 -6 -6 1033.3 1031.8

 

Местоположение метеостанции Torungen Fyr (Норвегия): широта 58.40 долгота 8.80 высота над уровнем моря 12 м.

В архиве по умолчанию представлена погода в Torungen Fyr за последнюю неделю. Архивные данные за месяц целиком и за предыдущие месяцы, начиная с января 2011 года, Вы можете получить, выбрав интересующий диапазон дат из раскрывающегося списка и нажав кнопку "Ввод!".


*Определитесь, кто Вы:
робот инопланетянин человек

Внимание! Время в таблицах - всемирное. Для получения местного времени необходимо прибавить поправку, которая в Torungen Fyr равна 1 ч.

Смотрите также архив погоды в соседних городах и на ближайших метеорологических станциях:

Погода в Landvik (Норвегия) (18 км)
Погода в Nelaug (Норвегия) (30 км)
Погода в Hynnekleiv (Норвегия) (31 км)
Погода в Lyngor Fyr (Норвегия) (33 км)
Погода в Kjevik (Норвегия) (48 км)
Погода в Gjerstad (Норвегия) (54 км)
Погода в Oksoy Fyr (Норвегия) (57 км)
Погода в Byglandsfjord-Neset (Норвегия) (66 км)
Погода в Jomfruland (Норвегия) (68 км)
Погода в Tveitsund (Норвегия) (72 км)

Пояснения к столбцам:

Ветер - указаны скорость ветра в м/с - средняя за 10 мин, порывы в срок и между сроками (в фигурных скобках) и направление, откуда дует ветер: С - северный, СВ - северо-восточный, В - восточный, ЮВ - юго-восточный, Ю - южный, ЮЗ - юго-западный, З - западный, СЗ - северо-западный.
Видимость - горизонтальная дальность видимости в метрах или километрах. При видимости от 1 до 10 км при отсутствии осадков обычно наблюдается дымка, при ухудшении видимости до 1 км и менее - туман. В сухую погоду видимость может ухудшаться дымом, пылью или мглою.
Явления - указаны атмосферные явления, наблюдавшиеся в срок или в последний час перед сроком; фигурными скобками обозначены явления, наблюдавшиеся между сроками (за 1-3 часа до срока); квадратными скобками обозначены град или гололедные отложения с указанием их диаметра в мм.
Облачность - указаны через наклонную черту общая и нижняя облачность в баллах и высота нижней границы облаков в метрах; квадратными скобками обозначены формы облаков: Ci - перистые, Cs - перисто-слоистые, Cc - перисто-кучевые, Ac - высококучевые, As - высокослоистые, Sc - слоисто-кучевые, Ns - слоисто-дождевые, Cu - кучевые, Cb - кучево-дождевые. Подробнее классификацию облаков см. в Атласе облаков (PDF).
T - Температура воздуха - температура, измеренная на высоте 2 м над землей.
Td - Температура точки росы - температура, при понижении до которой содержащийся в воздухе водяной пар достигнет насыщения.
f - Относительная влажность воздуха - влажноcть воздуха, измеренная на высоте 2 м над землей.
Te - Эффективная температура - температура, которую ощущает одетый по сезону человек в тени. Характеристика душности погоды. При расчете учитывается влияние влажности воздуха и скорости ветра на теплоощущения человека.
Tes - Эффективная температура на солнце - температура, которую ощущает человек, с поправкой на солнечный нагрев. Характеристика знойности погоды. Зависит от высоты солнца над горизонтом, облачности и скорости ветра. Ночью, в пасмурную погоду, а также при ветре 12 м/с и более поправка равна нулю.
P - Атмосферное давление - приведенное к уровню моря атмосферное давление.
Po - Атмосферное давление - измеренное на уровне метеостанции атмосферное давление.
Tmin - Минимальная температура - минимум температуры воздуха на высоте 2 м над землей.
Tmax - Максимальная температура - максимум температуры воздуха на высоте 2 м над землей.
R - Количество осадков - Количество выпавших осадков за период времени, мм. При наведении курсора мыши на число - период времени, за который выпало указанное количество осадков.
R24 - Количество осадков - Количество выпавших осадков за 24 часа, мм.
S - Снежный покров - Высота снежного покрова, см. При наведении курсора мыши на число - состояние снежного покрова и степень покрытия местности в баллах.